Regional Weather Roundup
Issued by NWS

Home | Current Version | Previous Version | Text Only | Print | Product List | Glossary On
Versions: 1 2 3 4 5 6 7 8 9 10 11 12 13 14 15 16 17 18 19 20 21 22 23 24 25 26 27 28 29 30 31 32 33 34 35 36 37 38 39 40 41 42 43 44 45 46 47 48 49 50
000
ASUS43 KDTX 060401
RWRMI
MICHIGAN HOURLY REGIONAL WEATHER ROUNDUP
NATIONAL WEATHER SERVICE DETROIT/PONTIAC MI
1100 PM EST THU MAR 05 2015

NOTE: "FAIR" INDICATES FEW OR NO CLOUDS BELOW 12,000 FEET WITH NO
SIGNIFICANT WEATHER AND/OR OBSTRUCTION TO VISIBILITY.

MIZ047>049-052>055-059>063-066>070-074>076-081>083-060500-
SOUTHEAST LOWER MICHIGAN

CITY           SKY/WX    TMP DP  RH WIND       PRES   REMARKS
ADRIAN         PTCLDY     4  -2  76 NW5       30.51R WCI  -5
ALMA           FAIR       6  -1  74 SW5       30.50R WCI  -3
ANN ARBOR      PTCLDY    -3  -7  82 CALM      30.50R
BAD AXE        PTCLDY     2  -5  71 SW5       30.46R WCI  -7
CARO           CLEAR     -3  -8  78 CALM      30.48R
DETROIT CITY   PTCLDY     9  -2  61 S3        30.51R
DETROIT        PTCLDY     8  -1  66 S3        30.52R
FLINT          PTCLDY     2  -6  69 SW6       30.49R WCI  -9
GROSSE ILE     PTCLDY     9  -2  61 CALM      30.51R
HILLSDALE      MOCLDY     7   0  73 W5        30.47R WCI  -2
HOWELL         PTCLDY     6  -2  70 SW5       30.48R WCI  -3

CITY           SKY/WX    TMP DP  RH WIND       PRES   REMARKS
JACKSON        PTCLDY     4  -2  76 SW3       30.49R
LAMBERTVILLE   PTCLDY     9   1  72 CALM      30.52S
LANSING        PTCLDY     8   1  73 W7        30.50R WCI  -3
LAPEER         FAIR      -3  -7  84 CALM      30.48R
MASON          PTCLDY     4  -3  72 CALM      30.49R
MONROE         PTCLDY     7   0  72 CALM      30.50S
MT. CLEMENS    PTCLDY     2  -4  72 S5        30.48S WCI  -7
PONTIAC        PTCLDY     4  -3  73 CALM      30.47R
PORT HOPE        N/A      8  -4  58 SW6       30.44R WCI  -2
PORT HURON     PTCLDY     1  -6  71 S5        30.50S WCI  -8
TRI CITIES     CLEAR      5  -4  66 W8        30.49R WCI  -8
TROY           PTCLDY    11   0  59 CALM      30.52R
SAGINAW HB     PTCLDY     9   0  66 SW7       30.49R WCI  -3
$$
MIZ043>046-050>051-056>058-064>065-071>073-077>080-060500-
SOUTHWEST LOWER MICHIGAN

CITY           SKY/WX    TMP DP  RH WIND       PRES   REMARKS
BATTLE CREEK   PTCLDY     8   0  69 SW5       30.49S WCI   0
BENTON HARBOR  PTCLDY     5   2  87 CALM      30.52S
BIG RAPIDS     CLOUDY     0  -4  85 CALM      30.44S
COLDWATER      MOCLDY     8   2  76 CALM      30.50S
FREMONT        CLOUDY     2  -4  77 CALM      30.47S
HOLLAND        MOCLDY    -1  -6  79 S6        30.51S WCI -13
GRAND RAPIDS   PTCLDY     8   0  69 SW5       30.50R WCI   0
IONIA          FAIR       5   1  80 W6        30.49R WCI  -5
KALAMAZOO      PTCLDY     5   0  79 SW5       30.51R WCI  -4
LUDINGTON      PTCLDY    16   4  59 W6        30.46R WCI   7
MARSHALL       MOCLDY     3  -2  77 CALM      30.49S
MOUNT PLEASANT PTCLDY     5  -2  71 SW3       30.47S
MUSKEGON       CLOUDY    13   5  70 S3        30.49F
SOUTH HAVEN    MOCLDY     6   2  84 CALM      30.52S
$$
MIZ016>042-060500-
NORTHERN LOWER MICHIGAN

CITY           SKY/WX    TMP DP  RH WIND       PRES   REMARKS
ALPENA         PTCLDY    -8 -13  78 CALM      30.43S
BEAVER ISLAND  CLEAR      8   1  73 S8        30.37F WCI  -5
BELLAIRE       CLEAR     -4  -8  84 CALM      30.43F
CADILLAC       CLOUDY     6   1  79 SW7       30.37S WCI  -6
CHARLEVOIX     CLEAR      7   0  73 CALM      30.42F
FRANKFORT      MOCLDY    15   6  66 W8        30.43R WCI   5
GAYLORD        PTCLDY     0  -4  83 SW7       30.35S WCI -13
GRAYLING       MOCLDY    -2  -6  84 CALM      30.40S FOG
HARBOR SPRINGS PTCLDY    -3  -7  84 CALM      30.39F
HOUGHTON LAKE  PTCLDY    -1  -6  79 SW5       30.41S WCI -11
MANISTEE       CLOUDY    10   1  67 CALM      30.44S
OSCODA         CLEAR     -2  -9  73 W6        30.45R WCI -14
PELLSTON       PTCLDY    -4  -9  79 CALM      30.39F
ROGERS CITY    PTCLDY     2  -3  79 SW6       30.42F WCI  -9
TRAVERSE CITY  MOCLDY     9   2  73 VRB5      30.41F WCI   1
$$
MIZ007>008-015-060500-
EASTERN UPPER MICHIGAN

CITY           SKY/WX    TMP DP  RH WIND       PRES   REMARKS
KINROSS        PTCLDY     1   0  92 S5        30.35S WCI  -8
MACKINAC ISLAN PTCLDY     4  -2  76 S10       30.37S WCI -11
NEWBERRY       PTCLDY     1  -2  87 S9        30.31F WCI -14
S. S. MARIE    FAIR      -2  -8  76 CALM      30.36S
MUNISING         N/A      5  -4  66 S7        30.33R WCI  -7
$$
MIZ004>006-011>014-085-060500-
CENTRAL UPPER MICHIGAN

CITY           SKY/WX    TMP DP  RH WIND       PRES   REMARKS
MANISTIQUE     PTCLDY    11  -1  59 SW7       30.34S WCI   0
ESCANABA       PTCLDY     7  -6  56 SW10      30.37S WCI  -8
MENOMINEE      CLEAR      7  -8  51 W5        30.39S WCI  -2
SAWYER-GWINN   PTCLDY     3 -12  48 SW7       30.26S WCI  -9
$$
MIZ001>003-009>011-084-060500-
WESTERN UPPER MICHIGAN

CITY           SKY/WX    TMP DP  RH WIND       PRES   REMARKS
IRON MOUNTAIN  CLEAR      5 -10  50 SW6       30.29S WCI  -6
HOUGHTON       PTCLDY     9 -11  40 W18G26    30.22F WCI -10
COPPER HARBOR    N/A      4 -11  50 W5        30.25S WCI  -5
IRONWOOD       CLEAR      7  -9  47 SW12      30.24S WCI  -9
$$

ABBREVIATIONS USED IN REMARKS
   TC - TEMPERATURE IN CELSIUS
  WCI - WIND CHILL INDEX
   HX - HEAT INDEX
  VSB - VISIBILITY




USA.gov is the U.S. government's official web portal to all federal, state and local government web resources and services.